This demonstration page uses our WeatherBlox Daily Observations layout. Learn more.

38.89511, -77.03637

Hourly Observations for June 26, 2020

Temp ( °F °C ) Dew Point ( °F °C ) Humidity (%) Winds ( mph kmh ) Pressure ( in mb ) Visibility ( mi km ) Precip ( " mm )
12:52 am 00:52 Mostly Cloudy 71 21.7 61 16.1 71 71 Calm 30.02 1017 10 16.0934 0 0
1:52 am 01:52 Partly Cloudy 70 21.1 61 16.1 73 73 N 5 7 30.01 1016 10 16.0934 0 0
2:52 am 02:52 Mostly Clear 67 19.4 61 16.1 81 81 NNW 6 9 30.02 1017 10 16.0934 0 0
3:52 am 03:52 Clear 67 19.4 62 16.7 84 84 N 3 6 30.03 1017 10 16.0934 0 0
4:52 am 04:52 Mostly Clear 69 20.6 60 15.6 73 73 Calm 30.03 1017 10 16.0934 0 0
5:52 am 05:52 Partly Cloudy 68 20 60 15.6 76 76 SSW 3 6 30.04 1017 10 16.0934 0 0
6:52 am 06:52 Mostly Cloudy 68 20 61 16.1 78 78 SSW 3 6 30.05 1018 10 16.0934 0 0
7:52 am 07:52 Mostly Cloudy 71 21.7 62 16.7 73 73 S 3 6 30.07 1018 10 16.0934 0 0
8:52 am 08:52 Partly Cloudy 75 23.9 63 17.2 66 66 SSW 8 13 30.06 1018 10 16.0934 0 0
9:52 am 09:52 Partly Cloudy 81 27.2 59 15 47 47 NW 8 13 30.06 1018 10 16.0934 0 0
10:52 am 10:52 Mostly Sunny 84 28.9 59 15 43 43 NW 9 15 30.05 1018 10 16.0934 0 0
11:52 am 11:52 Mostly Sunny 86 30 57 13.9 37 37 WNW 12 19 30.04 1017 10 16.0934 0 0
12:52 pm 12:52 Mostly Sunny 87 30.6 56 13.3 35 35 W 8 13 30.03 1017 10 16.0934 0 0
1:52 pm 13:52 Partly Cloudy 89 31.7 56 13.3 33 33 W 15 24 30 1016 10 16.0934 0 0
2:52 pm 14:52 Mostly Cloudy 88 31.1 57 13.9 35 35 W 12 19 29.98 1015 10 16.0934 0 0
3:52 pm 15:52 Mostly Cloudy 89 31.7 59 15 36 36 WSW 12 19 29.97 1015 10 16.0934 0 0
4:52 pm 16:52 Mostly Cloudy 89 31.7 59 15 36 36 W 13 20 29.96 1015 10 16.0934 0 0
5:52 pm 17:52 Mostly Cloudy 88 31.1 59 15 38 38 WSW 14 22 29.95 1014 10 16.0934 0 0
6:52 pm 18:52 Mostly Cloudy 87 30.6 59 15 39 39 SW 14 22 29.95 1014 10 16.0934 0 0
7:52 pm 19:52 Cloudy 85 29.4 59 15 42 42 SW 12 19 29.95 1014 10 16.0934 0 0
8:52 pm 20:52 Cloudy 83 28.3 61 16.1 48 48 SSW 10 17 29.95 1014 10 16.0934 0 0
9:52 pm 21:52 Cloudy 82 27.8 62 16.7 51 51 SSW 10 17 29.95 1014 10 16.0934 0 0
10:52 pm 22:52 Mostly Cloudy 81 27.2 63 17.2 54 54 SW 7 11 29.96 1015 10 16.0934 0 0
11:52 pm 23:52 Partly Cloudy 79 26.1 63 17.2 58 58 SSW 7 11 29.94 1014 10 16.0934 0 0

Powered by AerisWeather